EW9273 Weather Reports


Display with metric or nautical units.
time (UTC)temp
F
wind
direction
speed
MPH
gust
MPH
rain 1hr
in
rain 24hr
in
rain mn
in
humidity
%
barometer
mb
20260902170540 93 181 3.0 7.0 0.00 0.00 0.00 55 1012.5
20260902170040 93 285 1.0 8.0 0.00 0.00 0.00 55 1012.5
20260902165537 92 269 2.0 9.0 0.00 0.00 0.00 57 1012.6
20260902165036 91 176 4.0 9.0 0.00 0.00 0.00 57 1012.7
20260902164534 91 221 2.0 8.0 0.00 0.00 0.00 59 1012.7
20260902164033 90 207 2.0 6.0 0.00 0.00 0.00 59 1012.7
20260902163533 90 139 3.0 7.0 0.00 0.00 0.00 59 1012.7
20260902163029 90 157 2.0 7.0 0.00 0.00 0.00 60 1012.7
20260902162528 89 148 3.0 8.0 0.00 0.00 0.00 62 1012.7
20260902162025 89 234 3.0 8.0 0.00 0.00 0.00 62 1012.7
20260902161528 88 213 2.0 8.0 0.00 0.00 0.00 63 1012.7
20260902161023 88 188 3.0 8.0 0.00 0.00 0.00 63 1012.8
20260902160522 88 198 4.0 8.0 0.00 0.00 0.00 63 1012.8
20260902160020 88 175 2.0 6.0 0.00 0.00 0.00 64 1012.8
20260902155521 88 202 4.0 7.0 0.00 0.00 0.00 65 1012.7
20260902155019 87 209 4.0 12.0 0.00 0.00 0.00 65 1012.8
20260902154525 87 247 5.0 9.0 0.00 0.00 0.00 65 1012.8
20260902154015 87 219 4.0 8.0 0.00 0.00 0.00 66 1012.8
20260902153517 87 225 2.0 7.0 0.00 0.00 0.00 68 1012.8
20260902153013 86 213 3.0 7.0 0.00 0.00 0.00 69 1012.7
20260902152511 86 192 3.0 7.0 0.00 0.00 0.00 69 1012.8
20260902152009 85 212 3.0 7.0 0.00 0.00 0.00 70 1012.7
20260902151508 85 219 3.0 9.0 0.00 0.00 0.00 71 1012.9
20260902151006 84 240 4.0 10.0 0.00 0.00 0.00 72 1012.8
20260902150505 84 221 3.0 10.0 0.00 0.00 0.00 72 1012.8
20260902150005 83 257 3.0 10.0 0.00 0.00 0.00 73 1012.8
20260902145504 83 226 4.0 11.0 0.00 0.00 0.00 74 1012.9
20260902145004 83 205 6.0 11.0 0.00 0.00 0.00 74 1013.0
20260902144502 83 216 4.0 9.0 0.00 0.00 0.00 74 1012.9
20260902144002 83 211 3.0 8.0 0.00 0.00 0.00 75 1012.9
20260902143501 82 236 3.0 8.0 0.00 0.00 0.00 76 1013.0
20260902143107 82 220 4.0 10.0 0.00 0.00 0.00 76 1013.0
20260902142600 82 246 4.0 10.0 0.00 0.00 0.00 77 1013.0
20260902142057 82 246 3.0 7.0 0.00 0.00 0.00 78 1013.0
20260902141557 81 240 1.0 6.0 0.00 0.00 0.00 79 1012.9
20260902141056 81 143 3.0 8.0 0.00 0.00 0.00 79 1012.9
20260902140558 81 157 3.0 7.0 0.00 0.00 0.00 79 1012.9
20260902140056 80 196 3.0 7.0 0.00 0.00 0.00 80 1012.9
20260902135554 80 230 3.0 6.0 0.00 0.00 0.00 80 1012.9
20260902135054 80 144 3.0 7.0 0.00 0.00 0.00 81 1013.0
20260902134553 80 211 2.0 6.0 0.00 0.00 0.00 81 1012.9
20260902134051 79 205 2.0 5.0 0.00 0.00 0.00 82 1012.8
20260902133551 79 149 2.0 4.0 0.00 0.00 0.00 82 1012.8
20260902133050 79 129 1.0 4.0 0.00 0.00 0.00 82 1012.8
20260902132550 79 200 1.0 5.0 0.00 0.00 0.00 83 1012.8
20260902132049 79 213 2.0 5.0 0.00 0.00 0.00 83 1012.7
20260902131547 78 238 2.0 4.0 0.00 0.00 0.00 83 1012.7
20260902131047 78 186 0.0 4.0 0.00 0.00 0.00 83 1012.7
20260902130550 78 186 2.0 4.0 0.00 0.00 0.00 83 1012.7
20260902130051 78 186 1.0 4.0 0.00 0.00 0.00 83 1012.7
20260902125544 78 187 1.0 3.0 0.00 0.00 0.00 83 1012.6
20260902125047 78 197 1.0 3.0 0.00 0.00 0.00 83 1012.5
20260902124543 77 197 0.0 2.0 0.00 0.00 0.00 83 1012.4
20260902124043 77 196 0.0 2.0 0.00 0.00 0.00 83 1012.3
20260902123538 77 197 0.0 3.0 0.00 0.00 0.00 83 1012.2
20260902123043 77 197 1.0 3.0 0.00 0.00 0.00 83 1012.2
20260902122542 77 197 0.0 3.0 0.00 0.00 0.00 83 1012.1
20260902122036 77 197 0.0 3.0 0.00 0.00 0.00 83 1012.1
20260902121536 77 216 0.0 3.0 0.00 0.00 0.00 83 1012.1
20260902121036 77 213 0.0 2.0 0.00 0.00 0.00 82 1012.0
20260902120537 77 213 0.0 3.0 0.00 0.00 0.00 82 1012.0
20260902120037 77 211 0.0 3.0 0.00 0.00 0.00 82 1012.0
20260902115537 77 195 1.0 3.0 0.00 0.00 0.00 82 1012.1
20260902115035 77 227 0.0 5.0 0.00 0.00 0.00 82 1012.0
20260902114539 78 209 1.0 5.0 0.00 0.00 0.00 82 1011.9
20260902114037 78 205 1.0 5.0 0.00 0.00 0.00 82 1011.9
20260902113535 78 181 2.0 4.0 0.00 0.00 0.00 82 1011.9
20260902113041 78 173 2.0 5.0 0.00 0.00 0.00 82 1011.9
20260902112535 78 194 2.0 5.0 0.00 0.00 0.00 82 1011.9
20260902112034 78 186 1.0 5.0 0.00 0.00 0.00 82 1011.9
20260902111534 78 204 1.0 5.0 0.00 0.00 0.00 81 1011.8
20260902111033 78 213 1.0 5.0 0.00 0.00 0.00 81 1011.9
20260902110533 78 182 2.0 5.0 0.00 0.00 0.00 81 1011.8
20260902110043 78 202 1.0 5.0 0.00 0.00 0.00 81 1011.8
20260902105532 78 200 1.0 5.0 0.00 0.00 0.00 81 1011.9
20260902105032 78 180 1.0 5.0 0.00 0.00 0.00 80 1011.9
20260902104538 78 211 2.0 4.0 0.00 0.00 0.00 80 1011.8
20260902104031 78 201 2.0 4.0 0.00 0.00 0.00 80 1011.8
20260902103535 78 207 2.0 4.0 0.00 0.00 0.00 79 1011.8
20260902103037 78 175 1.0 4.0 0.00 0.00 0.00 79 1011.8
20260902102531 78 201 1.0 4.0 0.00 0.00 0.00 79 1011.7
20260902102030 78 205 0.0 5.0 0.00 0.00 0.00 78 1011.7
20260902101531 78 197 1.0 5.0 0.00 0.00 0.00 78 1011.7
20260902101029 78 213 2.0 5.0 0.00 0.00 0.00 77 1011.8
20260902100529 78 190 1.0 3.0 0.00 0.00 0.00 77 1011.8
20260902100029 78 190 0.0 2.0 0.00 0.00 0.00 77 1011.8
20260902095528 78 190 0.0 3.0 0.00 0.00 0.00 77 1011.8
20260902095028 78 190 0.0 3.0 0.00 0.00 0.00 77 1011.9
20260902094528 78 190 1.0 3.0 0.00 0.00 0.00 76 1011.8
20260902094028 78 154 0.0 2.0 0.00 0.00 0.00 76 1011.9
20260902093527 78 154 0.0 2.0 0.00 0.00 0.00 76 1012.0
20260902093026 78 154 0.0 2.0 0.00 0.00 0.00 76 1012.0
20260902092527 79 154 0.0 3.0 0.00 0.00 0.00 76 1012.1
20260902092028 79 154 1.0 3.0 0.00 0.00 0.00 75 1012.1
20260902091525 79 154 0.0 3.0 0.00 0.00 0.00 75 1012.0
20260902091026 79 154 1.0 3.0 0.00 0.00 0.00 75 1012.0
20260902090524 79 154 1.0 3.0 0.00 0.00 0.00 75 1012.0
20260902090025 79 154 1.0 3.0 0.00 0.00 0.00 74 1012.0
20260902085524 79 154 0.0 3.0 0.00 0.00 0.00 74 1012.1
20260902085024 79 154 0.0 3.0 0.00 0.00 0.00 74 1012.0
20260902084526 79 154 1.0 3.0 0.00 0.00 0.00 74 1012.0
20260902084024 79 154 0.0 2.0 0.00 0.00 0.00 73 1012.1
20260902083523 79 154 0.0 2.0 0.00 0.00 0.00 73 1012.1
20260902083021 79 154 0.0 2.0 0.00 0.00 0.00 73 1012.0
20260902082521 80 154 0.0 2.0 0.00 0.00 0.00 72 1012.1
20260902082020 80 154 0.0 2.0 0.00 0.00 0.00 72 1012.1
20260902081519 80 154 0.0 3.0 0.00 0.00 0.00 72 1012.1
20260902081019 80 154 1.0 3.0 0.00 0.00 0.00 72 1012.1
20260902080520 80 153 1.0 3.0 0.00 0.00 0.00 72 1012.1
20260902080018 80 153 1.0 3.0 0.00 0.00 0.00 71 1012.2
20260902075517 80 153 1.0 3.0 0.00 0.00 0.00 71 1012.1
20260902075017 80 153 1.0 4.0 0.00 0.00 0.00 71 1012.1
20260902074517 81 179 1.0 6.0 0.00 0.00 0.00 70 1012.1
20260902074016 81 154 3.0 6.0 0.00 0.00 0.00 70 1012.2
20260902073520 81 173 1.0 3.0 0.00 0.00 0.00 70 1012.2
20260902073015 81 159 1.0 5.0 0.00 0.00 0.00 70 1012.2
20260902072513 81 134 1.0 5.0 0.00 0.00 0.00 69 1012.1
20260902072013 81 156 1.0 8.0 0.00 0.00 0.00 69 1012.2
20260902071513 81 175 2.0 8.0 0.00 0.00 0.00 69 1012.3
20260902071013 81 121 1.0 3.0 0.00 0.00 0.00 68 1012.2
20260902070512 81 152 0.0 5.0 0.00 0.00 0.00 68 1012.3
20260902070013 82 157 0.0 5.0 0.00 0.00 0.00 68 1012.3
20260902065510 82 160 0.0 5.0 0.00 0.00 0.00 67 1012.2
20260902065011 82 160 0.0 3.0 0.00 0.00 0.00 67 1012.1
20260902064510 82 173 0.0 6.0 0.00 0.00 0.00 67 1012.2
20260902064010 82 155 1.0 4.0 0.00 0.00 0.00 67 1012.1
20260902063509 82 91 0.0 2.0 0.00 0.00 0.00 66 1012.1
20260902063010 82 91 0.0 1.0 0.00 0.00 0.00 66 1012.2
20260902062508 82 91 0.0 2.0 0.00 0.00 0.00 66 1012.2
20260902062006 82 91 0.0 3.0 0.00 0.00 0.00 65 1012.1
20260902061506 82 168 0.0 2.0 0.00 0.00 0.00 65 1012.1
20260902061007 83 72 0.0 2.0 0.00 0.00 0.00 65 1012.1
20260902060506 83 182 0.0 1.0 0.00 0.00 0.00 65 1012.0
20260902060006 83 182 0.0 2.0 0.00 0.00 0.00 64 1012.0
20260902055509 83 182 0.0 3.0 0.00 0.00 0.00 64 1012.0
20260902055005 83 182 1.0 5.0 0.00 0.00 0.00 64 1012.0
20260902054504 83 144 1.0 5.0 0.00 0.00 0.00 64 1011.9
20260902054001 83 215 0.0 5.0 0.00 0.00 0.00 63 1011.8
20260902053503 83 67 0.0 3.0 0.00 0.00 0.00 63 1011.8
20260902053119 84 67 1.0 3.0 0.00 0.00 0.00 63 1011.8
20260902052604 84 177 0.0 4.0 0.00 0.00 0.00 63 1011.7
20260902052058 84 158 0.0 5.0 0.00 0.00 0.00 63 1011.7
20260902051601 84 155 1.0 8.0 0.00 0.00 0.00 62 1011.7
20260902051100 84 159 3.0 8.0 0.00 0.00 0.00 62 1011.7
20260902050557 84 123 3.0 7.0 0.00 0.00 0.00 62 1011.7
20260902050108 84 156 3.0 6.0 0.00 0.00 0.00 62 1011.8
20260902045554 84 165 2.0 6.0 0.00 0.00 0.00 62 1011.8
20260902045054 85 137 1.0 5.0 0.00 0.00 0.00 61 1011.8
20260902044554 85 148 1.0 5.0 0.00 0.00 0.00 61 1011.8
20260902044054 85 153 1.0 9.0 0.00 0.00 0.00 61 1011.8
20260902043554 85 178 1.0 9.0 0.00 0.00 0.00 61 1011.7
20260902043057 85 146 0.0 4.0 0.00 0.00 0.00 60 1011.7
20260902042553 85 140 1.0 4.0 0.00 0.00 0.00 60 1011.7
20260902042053 85 133 1.0 4.0 0.00 0.00 0.00 60 1011.6
20260902041552 86 48 1.0 6.0 0.00 0.00 0.00 60 1011.6
20260902041052 86 105 1.0 10.0 0.00 0.00 0.00 60 1011.5
20260902040552 86 86 2.0 10.0 0.00 0.00 0.00 60 1011.4
20260902040053 86 131 1.0 9.0 0.00 0.00 0.00 60 1011.4
20260902035552 86 104 1.0 9.0 0.00 0.00 0.00 60 1011.5
20260902035052 86 169 1.0 5.0 0.00 0.00 0.00 60 1011.5
20260902034558 86 129 2.0 5.0 0.00 0.00 0.00 60 1011.5
20260902034054 86 294 1.0 5.0 0.00 0.00 0.00 60 1011.5
20260902033555 86 49 1.0 6.0 0.00 0.00 0.00 60 1011.4
20260902033055 87 67 2.0 6.0 0.00 0.00 0.00 59 1011.3
20260902032552 87 35 0.0 6.0 0.00 0.00 0.00 59 1011.2
20260902032051 87 73 1.0 6.0 0.00 0.00 0.00 58 1011.2
20260902031551 87 128 2.0 7.0 0.00 0.00 0.00 58 1011.1
20260902031051 88 83 1.0 8.0 0.00 0.00 0.00 57 1011.0
20260902030551 88 355 1.0 8.0 0.00 0.00 0.00 56 1011.0
20260902030051 88 53 2.0 7.0 0.00 0.00 0.00 55 1010.8
20260902025551 89 58 3.0 9.0 0.00 0.00 0.00 55 1010.7
20260902025054 89 96 3.0 9.0 0.00 0.00 0.00 55 1010.6
20260902024551 89 71 2.0 9.0 0.00 0.00 0.00 54 1010.6
20260902024049 89 68 2.0 9.0 0.00 0.00 0.00 54 1010.4
20260902023549 89 74 2.0 8.0 0.00 0.00 0.00 53 1010.4
20260902023054 90 110 2.0 9.0 0.00 0.00 0.00 53 1010.3
20260902022550 90 102 3.0 9.0 0.00 0.00 0.00 53 1010.2
20260902022050 90 75 2.0 7.0 0.00 0.00 0.00 53 1010.2
20260902021548 90 5 2.0 6.0 0.00 0.00 0.00 52 1010.0
20260902021048 90 94 2.0 8.0 0.00 0.00 0.00 52 1009.9
20260902020549 90 87 2.0 8.0 0.00 0.00 0.00 52 1009.9
20260902020049 91 56 3.0 8.0 0.00 0.00 0.00 51 1009.8
20260902015552 91 83 3.0 10.0 0.00 0.00 0.00 51 1009.7
20260902015049 91 44 4.0 9.0 0.00 0.00 0.00 51 1009.6
20260902014550 91 89 4.0 9.0 0.00 0.00 0.00 50 1009.5
20260902014048 92 69 3.0 11.0 0.00 0.00 0.00 50 1009.5
20260902013548 92 107 5.0 11.0 0.00 0.00 0.00 49 1009.4
20260902013049 92 83 4.0 11.0 0.00 0.00 0.00 49 1009.3
20260902012549 93 96 4.0 11.0 0.00 0.00 0.00 48 1009.3
20260902012048 93 103 3.0 11.0 0.00 0.00 0.00 48 1009.3
20260902011552 93 81 5.0 11.0 0.00 0.00 0.00 47 1009.2
20260902011048 93 80 4.0 9.0 0.00 0.00 0.00 47 1009.2
20260902010546 94 59 4.0 9.0 0.00 0.00 0.00 46 1009.0
20260902010101 94 105 3.0 6.0 0.00 0.00 0.00 44 1008.9
20260902005546 94 58 1.0 3.0 0.00 0.00 0.00 43 1008.9
20260902005046 95 75 1.0 4.0 0.00 0.00 0.00 43 1009.0
20260902004546 95 68 1.0 4.0 0.00 0.00 0.00 43 1008.9
20260902004045 95 88 0.0 4.0 0.00 0.00 0.00 43 1009.0
20260902003545 95 53 2.0 6.0 0.00 0.00 0.00 42 1009.0
20260902003045 95 56 3.0 6.0 0.00 0.00 0.00 42 1009.0
20260902002548 96 70 2.0 6.0 0.00 0.00 0.00 41 1009.1
20260902002045 96 51 3.0 6.0 0.00 0.00 0.00 41 1009.1
20260902001545 96 55 3.0 8.0 0.00 0.00 0.00 41 1009.0
20260902001043 96 62 3.0 8.0 0.00 0.00 0.00 41 1009.0
20260902000544 96 59 3.0 8.0 0.00 0.00 0.00 41 1009.0
20260902000048 96 24 4.0 7.0 0.00 0.00 0.00 40 1009.0
20260901235546 97 65 4.0 8.0 0.00 0.00 0.00 40 1009.1
20260901235042 97 36 3.0 6.0 0.00 0.00 0.00 40 1009.0
20260901234543 97 41 1.0 7.0 0.00 0.00 0.00 40 1009.0
20260901234043 98 44 4.0 15.0 0.00 0.00 0.00 39 1009.0
20260901233543 98 49 4.0 15.0 0.00 0.00 0.00 39 1009.0
20260901233045 99 75 1.0 3.0 0.00 0.00 0.00 38 1009.1
20260901232543 99 130 1.0 4.0 0.00 0.00 0.00 38 1009.1
20260901232042 99 175 1.0 5.0 0.00 0.00 0.00 38 1009.0
20260901231542 98 44 1.0 5.0 0.00 0.00 0.00 38 1009.1
20260901231041 99 145 1.0 5.0 0.00 0.00 0.00 37 1009.1
20260901230541 98 157 0.0 5.0 0.00 0.00 0.00 38 1009.1
20260901230041 98 101 2.0 5.0 0.00 0.00 0.00 38 1009.1
20260901225542 97 313 1.0 6.0 0.00 0.00 0.00 39 1009.2
20260901225042 97 78 1.0 6.0 0.00 0.00 0.00 39 1009.2
20260901224548 97 50 2.0 6.0 0.00 0.00 0.00 39 1009.2
20260901224045 97 76 3.0 6.0 0.00 0.00 0.00 39 1009.2
20260901223539 98 53 2.0 6.0 0.00 0.00 0.00 40 1009.2
20260901223041 98 85 2.0 5.0 0.00 0.00 0.00 39 1009.2
20260901222540 98 86 2.0 8.0 0.00 0.00 0.00 40 1009.2
20260901222039 98 53 1.0 11.0 0.00 0.00 0.00 40 1009.2
20260901221553 99 101 5.0 11.0 0.00 0.00 0.00 38 1009.2
20260901221039 100 46 3.0 6.0 0.00 0.00 0.00 36 1009.1
20260901220538 101 279 2.0 6.0 0.00 0.00 0.00 36 1009.1
20260901220040 99 268 2.0 6.0 0.00 0.00 0.00 37 1009.2
20260901215538 99 20 3.0 6.0 0.00 0.00 0.00 37 1009.2
20260901215037 100 323 2.0 7.0 0.00 0.00 0.00 37 1009.3
20260901214552 98 333 3.0 7.0 0.00 0.00 0.00 38 1009.3
20260901214036 100 23 2.0 8.0 0.00 0.00 0.00 37 1009.3
20260901213536 100 84 3.0 8.0 0.00 0.00 0.00 36 1009.3
20260901213035 100 22 2.0 9.0 0.00 0.00 0.00 37 1009.4
20260901212535 100 5 2.0 5.0 0.00 0.00 0.00 37 1009.5
20260901212035 100 121 2.0 6.0 0.00 0.00 0.00 36 1009.5
20260901211536 101 255 3.0 9.0 0.00 0.00 0.00 35 1009.6
20260901211033 100 250 3.0 9.0 0.00 0.00 0.00 36 1009.6
20260901210532 98 288 1.0 5.0 0.00 0.00 0.00 37 1009.8
20260901210031 100 124 1.0 4.0 0.00 0.00 0.00 36 1009.9
20260901205530 100 101 1.0 7.0 0.00 0.00 0.00 36 1009.9
20260901205030 100 110 1.0 7.0 0.00 0.00 0.00 37 1010.0
20260901204535 98 153 1.0 6.0 0.00 0.00 0.00 36 1010.1
20260901204033 99 223 1.0 6.0 0.00 0.00 0.00 37 1010.2
20260901203529 98 63 2.0 9.0 0.00 0.00 0.00 38 1010.3
20260901203028 98 52 3.0 9.0 0.00 0.00 0.00 38 1010.3
20260901202528 98 65 2.0 5.0 0.00 0.00 0.00 38 1010.4
20260901202027 98 162 1.0 6.0 0.00 0.00 0.00 38 1010.4
20260901201526 99 323 2.0 8.0 0.00 0.00 0.00 38 1010.5
20260901201025 98 85 3.0 8.0 0.00 0.00 0.00 39 1010.6
20260901200524 99 76 1.0 6.0 0.00 0.00 0.00 38 1010.7
20260901200024 99 59 2.0 6.0 0.00 0.00 0.00 37 1010.8
20260901195525 99 311 3.0 6.0 0.00 0.00 0.00 38 1010.8
20260901195021 98 355 1.0 5.0 0.00 0.00 0.00 39 1010.9
20260901194521 99 19 1.0 8.0 0.00 0.00 0.00 38 1011.0
20260901194022 100 318 3.0 8.0 0.00 0.00 0.00 37 1011.0
20260901193521 98 355 1.0 5.0 0.00 0.00 0.00 40 1011.1
20260901193020 96 69 2.0 6.0 0.00 0.00 0.00 40 1011.2
20260901192520 98 85 1.0 10.0 0.00 0.00 0.00 39 1011.2
20260901192019 98 55 5.0 8.0 0.00 0.00 0.00 39 1011.2
20260901191534 99 324 1.0 6.0 0.00 0.00 0.00 37 1011.3
20260901191017 96 279 2.0 6.0 0.00 0.00 0.00 39 1011.3
20260901190520 97 67 2.0 7.0 0.00 0.00 0.00 39 1011.5
20260901190016 98 77 2.0 7.0 0.00 0.00 0.00 39 1011.6
20260901185516 98 157 2.0 6.0 0.00 0.00 0.00 39 1011.7
20260901185014 96 254 3.0 7.0 0.00 0.00 0.00 42 1011.7
20260901184513 96 165 1.0 10.0 0.00 0.00 0.00 42 1011.9
20260901184013 95 169 1.0 5.0 0.00 0.00 0.00 43 1012.0
20260901183512 95 190 3.0 7.0 0.00 0.00 0.00 42 1012.0
20260901183011 95 192 2.0 7.0 0.00 0.00 0.00 42 1012.1
20260901182510 96 94 1.0 8.0 0.00 0.00 0.00 42 1012.2
20260901182010 94 5 1.0 8.0 0.00 0.00 0.00 44 1012.2
20260901181508 94 153 2.0 9.0 0.00 0.00 0.00 44 1012.3
20260901181007 95 61 2.0 9.0 0.00 0.00 0.00 44 1012.4
20260901180507 96 202 0.0 6.0 0.00 0.00 0.00 44 1012.7
20260901180005 95 157 1.0 7.0 0.00 0.00 0.00 46 1012.7
20260901175505 94 55 3.0 8.0 0.00 0.00 0.00 46 1012.8
20260901175003 95 126 1.0 6.0 0.00 0.00 0.00 45 1012.8
20260901174504 95 96 2.0 8.0 0.00 0.00 0.00 43 1012.9
20260901174002 95 9 1.0 6.0 0.00 0.00 0.00 46 1012.9
20260901173501 94 94 2.0 9.0 0.00 0.00 0.00 47 1013.0
20260901173100 93 59 1.0 9.0 0.00 0.00 0.00 47 1013.1
20260901172603 94 67 4.0 7.0 0.00 0.00 0.00 47 1013.1
20260901172058 94 340 1.0 10.0 0.00 0.00 0.00 46 1013.1
20260901171600 94 108 3.0 10.0 0.00 0.00 0.00 47 1013.1
20260901171056 93 171 2.0 5.0 0.00 0.00 0.00 47 1013.2